Time,TemperatureF,DewpointF,PressureIn,WindDirection,WindDirectionDegrees,WindSpeedMPH,WindSpeedGustMPH,Humidity,HourlyPrecipIn,Conditions,Clouds,dailyrainin,SoftwareType,DateUTC
2013-07-11 00:11:00,68.3,68.0,29.71,WSW,241,0.0,-999.0,98,-99.99,,,0.00,weatherlink.com 1.10,2013-07-11 04:11:00,
2013-07-11 00:26:00,68.1,68.0,29.70,WSW,241,4.0,-999.0,98,-99.99,,,0.00,weatherlink.com 1.10,2013-07-11 04:26:00,
2013-07-11 00:41:00,68.0,68.0,29.71,WSW,240,3.0,-999.0,98,-99.99,,,0.00,weatherlink.com 1.10,2013-07-11 04:41:00,
2013-07-11 00:56:00,67.9,67.0,29.70,WSW,240,0.0,-999.0,98,-99.99,,,0.00,weatherlink.com 1.10,2013-07-11 04:56:00,
2013-07-11 01:11:00,67.8,67.0,29.70,WSW,240,0.0,-999.0,98,-99.99,,,0.00,weatherlink.com 1.10,2013-07-11 05:11:00,
2013-07-11 01:26:00,67.7,67.0,29.69,WSW,240,0.0,-999.0,98,-99.99,,,0.00,weatherlink.com 1.10,2013-07-11 05:26:00,
2013-07-11 01:41:00,67.6,67.0,29.69,WSW,240,0.0,-999.0,98,-99.99,,,0.00,weatherlink.com 1.10,2013-07-11 05:41:00,
2013-07-11 01:56:00,67.5,67.0,29.68,WSW,240,0.0,-999.0,98,-99.99,,,0.00,weatherlink.com 1.10,2013-07-11 05:56:00,
2013-07-11 02:11:00,67.4,67.0,29.68,WSW,240,0.0,-999.0,98,-99.99,,,0.00,weatherlink.com 1.10,2013-07-11 06:11:00,
2013-07-11 02:26:00,67.5,67.0,29.69,WSW,240,1.0,-999.0,98,-99.99,,,0.00,weatherlink.com 1.10,2013-07-11 06:26:00,
2013-07-11 02:41:00,67.6,67.0,29.68,WSW,240,0.0,-999.0,98,-99.99,,,0.00,weatherlink.com 1.10,2013-07-11 06:41:00,
2013-07-11 02:56:00,67.6,67.0,29.68,WSW,240,0.0,-999.0,98,-99.99,,,0.00,weatherlink.com 1.10,2013-07-11 06:56:00,
2013-07-11 03:11:00,67.6,67.0,29.68,WSW,240,1.0,-999.0,98,-99.99,,,0.00,weatherlink.com 1.10,2013-07-11 07:11:00,
2013-07-11 03:26:00,67.4,67.0,29.69,WSW,240,0.0,-999.0,98,-99.99,,,0.00,weatherlink.com 1.10,2013-07-11 07:26:00,
2013-07-11 03:41:00,67.5,67.0,29.69,WSW,240,0.0,-999.0,98,-99.99,,,0.00,weatherlink.com 1.10,2013-07-11 07:41:00,
2013-07-11 03:56:00,67.8,67.0,29.69,WSW,240,0.0,-999.0,98,-99.99,,,0.00,weatherlink.com 1.10,2013-07-11 07:56:00,
2013-07-11 04:11:00,67.7,67.0,29.69,WSW,240,0.0,-999.0,98,-99.99,,,0.00,weatherlink.com 1.10,2013-07-11 08:11:00,
2013-07-11 04:26:00,67.4,67.0,29.70,WSW,240,1.0,-999.0,98,-99.99,,,0.00,weatherlink.com 1.10,2013-07-11 08:26:00,
2013-07-11 04:41:00,67.6,67.0,29.70,WSW,240,0.0,-999.0,98,-99.99,,,0.00,weatherlink.com 1.10,2013-07-11 08:41:00,
2013-07-11 04:56:00,67.7,67.0,29.71,WSW,240,0.0,-999.0,98,-99.99,,,0.00,weatherlink.com 1.10,2013-07-11 08:56:00,
2013-07-11 05:11:00,67.6,67.0,29.71,WSW,240,0.0,-999.0,98,-99.99,,,0.00,weatherlink.com 1.10,2013-07-11 09:11:00,
2013-07-11 05:26:00,67.6,67.0,29.72,WSW,240,0.0,-999.0,98,-99.99,,,0.00,weatherlink.com 1.10,2013-07-11 09:26:00,
2013-07-11 05:41:00,67.8,67.0,29.71,WSW,240,0.0,-999.0,98,-99.99,,,0.00,weatherlink.com 1.10,2013-07-11 09:41:00,
2013-07-11 05:56:00,68.0,68.0,29.72,WSW,240,0.0,-999.0,98,-99.99,,,0.00,weatherlink.com 1.10,2013-07-11 09:56:00,
2013-07-11 06:11:00,68.2,68.0,29.73,WSW,240,0.0,-999.0,98,-99.99,,,0.00,weatherlink.com 1.10,2013-07-11 10:11:00,
2013-07-11 06:26:00,68.5,68.0,29.74,WSW,240,0.0,-999.0,98,-99.99,,,0.00,weatherlink.com 1.10,2013-07-11 10:26:00,
2013-07-11 06:41:00,69.1,69.0,29.74,WSW,240,2.0,-999.0,98,-99.99,,,0.00,weatherlink.com 1.10,2013-07-11 10:41:00,
2013-07-11 06:56:00,69.3,69.0,29.74,WNW,298,0.0,-999.0,99,-99.99,,,0.00,weatherlink.com 1.10,2013-07-11 10:56:00,
2013-07-11 07:11:00,69.6,69.0,29.74,WNW,298,0.0,-999.0,98,-99.99,,,0.00,weatherlink.com 1.10,2013-07-11 11:11:00,
2013-07-11 07:26:00,69.9,70.0,29.73,WNW,298,0.0,-999.0,100,-99.99,,,0.00,weatherlink.com 1.10,2013-07-11 11:26:00,
2013-07-11 07:41:00,70.5,70.0,29.72,WNW,298,0.0,-999.0,99,-99.99,,,0.00,weatherlink.com 1.10,2013-07-11 11:41:00,
2013-07-11 07:56:00,70.6,70.0,29.72,WNW,294,0.0,-999.0,99,-99.99,,,0.00,weatherlink.com 1.10,2013-07-11 11:56:00,
2013-07-11 08:11:00,70.4,70.0,29.72,WNW,292,1.0,-999.0,98,-99.99,,,0.00,weatherlink.com 1.10,2013-07-11 12:11:00,
2013-07-11 08:26:00,70.4,70.0,29.73,WNW,291,2.0,-999.0,98,-99.99,,,0.00,weatherlink.com 1.10,2013-07-11 12:26:00,
2013-07-11 08:41:00,70.8,70.0,29.71,WNW,291,1.0,-999.0,98,-99.99,,,0.00,weatherlink.com 1.10,2013-07-11 12:41:00,
2013-07-11 08:56:00,70.9,70.0,29.72,WNW,291,1.0,-999.0,98,-99.99,,,0.00,weatherlink.com 1.10,2013-07-11 12:56:00,
2013-07-11 09:11:00,71.1,71.0,29.73,WNW,291,4.0,-999.0,98,-99.99,,,0.00,weatherlink.com 1.10,2013-07-11 13:11:00,
2013-07-11 09:26:00,71.2,71.0,29.72,WNW,291,2.0,-999.0,98,-99.99,,,0.00,weatherlink.com 1.10,2013-07-11 13:26:00,
2013-07-11 09:41:00,71.0,70.0,29.73,WNW,291,2.0,-999.0,98,-99.99,,,0.00,weatherlink.com 1.10,2013-07-11 13:41:00,
2013-07-11 09:56:00,71.4,71.0,29.73,WNW,289,6.0,-999.0,98,-99.99,,,0.00,weatherlink.com 1.10,2013-07-11 13:56:00,
2013-07-11 10:11:00,71.4,71.0,29.73,WNW,289,0.0,-999.0,98,-99.99,,,0.00,weatherlink.com 1.10,2013-07-11 14:11:00,
2013-07-11 10:26:00,71.5,71.0,29.74,WNW,288,0.0,-999.0,98,-99.99,,,0.00,weatherlink.com 1.10,2013-07-11 14:26:00,
2013-07-11 10:41:00,71.9,71.0,29.75,WNW,292,6.0,-999.0,98,-99.99,,,0.00,weatherlink.com 1.10,2013-07-11 14:41:00,
2013-07-11 10:56:00,71.7,71.0,29.76,WNW,294,4.0,-999.0,98,-99.99,,,0.00,weatherlink.com 1.10,2013-07-11 14:56:00,
2013-07-11 11:11:00,72.0,71.0,29.76,NW,307,1.0,-999.0,98,-99.99,,,0.00,weatherlink.com 1.10,2013-07-11 15:11:00,
2013-07-11 11:26:00,72.6,72.0,29.77,NW,306,6.0,-999.0,98,-99.99,,,0.00,weatherlink.com 1.10,2013-07-11 15:26:00,
2013-07-11 11:41:00,73.4,73.0,29.77,WNW,302,1.0,-999.0,97,-99.99,,,0.00,weatherlink.com 1.10,2013-07-11 15:41:00,
2013-07-11 11:56:00,74.7,73.0,29.76,NW,304,0.0,-999.0,94,-99.99,,,0.00,weatherlink.com 1.10,2013-07-11 15:56:00,
2013-07-11 12:11:00,74.7,72.0,29.77,NW,304,0.0,-999.0,92,-99.99,,,0.00,weatherlink.com 1.10,2013-07-11 16:11:00,
2013-07-11 12:26:00,74.8,72.0,29.77,NW,304,0.0,-999.0,91,-99.99,,,0.00,weatherlink.com 1.10,2013-07-11 16:26:00,
2013-07-11 12:41:00,74.4,72.0,29.76,NW,304,0.0,-999.0,92,-99.99,,,0.00,weatherlink.com 1.10,2013-07-11 16:41:00,
2013-07-11 12:56:00,74.4,72.0,29.76,NW,304,1.0,-999.0,93,-99.99,,,0.00,weatherlink.com 1.10,2013-07-11 16:56:00,
2013-07-11 13:11:00,74.8,72.0,29.76,NNW,342,7.0,-999.0,92,-99.99,,,0.00,weatherlink.com 1.10,2013-07-11 17:11:00,
2013-07-11 13:26:00,75.3,73.0,29.76,North,5,0.0,-999.0,91,-99.99,,,0.00,weatherlink.com 1.10,2013-07-11 17:26:00,
2013-07-11 13:41:00,75.7,72.0,29.76,NNE,12,5.0,-999.0,89,-99.99,,,0.00,weatherlink.com 1.10,2013-07-11 17:41:00,
2013-07-11 13:56:00,76.0,72.0,29.76,North,11,2.0,-999.0,87,-99.99,,,0.00,weatherlink.com 1.10,2013-07-11 17:56:00,
2013-07-11 14:11:00,76.2,71.0,29.76,North,11,2.0,-999.0,85,-99.99,,,0.00,weatherlink.com 1.10,2013-07-11 18:11:00,
2013-07-11 14:26:00,76.6,71.0,29.76,North,11,1.0,-999.0,82,-99.99,,,0.00,weatherlink.com 1.10,2013-07-11 18:26:00,
2013-07-11 14:41:00,77.3,70.0,29.76,NNE,13,0.0,-999.0,79,-99.99,,,0.00,weatherlink.com 1.10,2013-07-11 18:41:00,
2013-07-11 14:56:00,78.0,70.0,29.76,NNE,13,1.0,-999.0,77,-99.99,,,0.00,weatherlink.com 1.10,2013-07-11 18:56:00,
2013-07-11 15:11:00,79.1,70.0,29.75,NNE,13,0.0,-999.0,73,-99.99,,,0.00,weatherlink.com 1.10,2013-07-11 19:11:00,
2013-07-11 15:41:00,79.9,70.0,29.75,NNE,14,3.0,-999.0,71,-99.99,,,0.00,weatherlink.com 1.10,2013-07-11 19:41:00,
2013-07-11 15:56:00,79.5,70.0,29.75,NNE,13,0.0,-999.0,72,-99.99,,,0.00,weatherlink.com 1.10,2013-07-11 19:56:00,
2013-07-11 16:11:00,79.2,69.0,29.76,NNE,13,0.0,-999.0,71,-99.99,,,0.00,weatherlink.com 1.10,2013-07-11 20:11:00,
2013-07-11 16:26:00,78.9,68.0,29.76,NNE,13,0.0,-999.0,69,-99.99,,,0.00,weatherlink.com 1.10,2013-07-11 20:26:00,
2013-07-11 16:56:00,79.7,70.0,29.76,NNE,13,0.0,-999.0,72,-99.99,,,0.00,weatherlink.com 1.10,2013-07-11 20:56:00,
2013-07-11 17:11:00,80.2,71.0,29.76,NNE,13,1.0,-999.0,74,-99.99,,,0.00,weatherlink.com 1.10,2013-07-11 21:11:00,
2013-07-11 17:26:00,80.0,71.0,29.76,NNE,13,0.0,-999.0,73,-99.99,,,0.00,weatherlink.com 1.10,2013-07-11 21:26:00,
2013-07-11 17:41:00,79.7,71.0,29.77,NNE,13,0.0,-999.0,75,-99.99,,,0.00,weatherlink.com 1.10,2013-07-11 21:41:00,
2013-07-11 17:56:00,80.0,72.0,29.78,NNE,13,0.0,-999.0,77,-99.99,,,0.00,weatherlink.com 1.10,2013-07-11 21:56:00,
2013-07-11 18:11:00,78.5,72.0,29.79,WNW,286,0.0,-999.0,79,-99.99,,,0.00,weatherlink.com 1.10,2013-07-11 22:11:00,
2013-07-11 18:41:00,76.0,72.0,29.80,West,277,0.0,-999.0,86,-99.99,,,0.00,weatherlink.com 1.10,2013-07-11 22:41:00,
2013-07-11 18:56:00,75.1,71.0,29.80,West,277,0.0,-999.0,87,-99.99,,,0.00,weatherlink.com 1.10,2013-07-11 22:56:00,
2013-07-11 19:11:00,74.2,71.0,29.80,West,277,0.0,-999.0,89,-99.99,,,0.00,weatherlink.com 1.10,2013-07-11 23:11:00,
2013-07-11 19:26:00,73.7,71.0,29.81,West,277,1.0,-999.0,91,-99.99,,,0.00,weatherlink.com 1.10,2013-07-11 23:26:00,
2013-07-11 19:56:00,72.6,70.0,29.83,West,277,0.0,-999.0,92,-99.99,,,0.00,weatherlink.com 1.10,2013-07-11 23:56:00,
2013-07-11 20:11:00,72.2,70.0,29.83,West,277,0.0,-999.0,93,-99.99,,,0.00,weatherlink.com 1.10,2013-07-12 00:11:00,
2013-07-11 20:26:00,71.8,70.0,29.83,West,277,0.0,-999.0,93,-99.99,,,0.00,weatherlink.com 1.10,2013-07-12 00:26:00,
2013-07-11 20:41:00,71.6,70.0,29.83,West,277,0.0,-999.0,93,-99.99,,,0.00,weatherlink.com 1.10,2013-07-12 00:41:00,
2013-07-11 20:56:00,71.3,70.0,29.84,West,277,0.0,-999.0,94,-99.99,,,0.00,weatherlink.com 1.10,2013-07-12 00:56:00,
2013-07-11 21:11:00,71.2,69.0,29.85,West,277,0.0,-999.0,94,-99.99,,,0.00,weatherlink.com 1.10,2013-07-12 01:11:00,
2013-07-11 21:26:00,71.1,69.0,29.85,West,277,0.0,-999.0,94,-99.99,,,0.00,weatherlink.com 1.10,2013-07-12 01:26:00,
2013-07-11 21:56:00,71.0,70.0,29.86,West,277,0.0,-999.0,95,-99.99,,,0.00,weatherlink.com 1.10,2013-07-12 01:56:00,
2013-07-11 22:11:00,71.0,70.0,29.86,West,277,0.0,-999.0,95,-99.99,,,0.00,weatherlink.com 1.10,2013-07-12 02:11:00,
2013-07-11 22:26:00,70.8,69.0,29.87,West,277,0.0,-999.0,95,-99.99,,,0.00,weatherlink.com 1.10,2013-07-12 02:26:00,
2013-07-11 22:41:00,71.0,70.0,29.88,West,277,4.0,-999.0,96,-99.99,,,0.00,weatherlink.com 1.10,2013-07-12 02:41:00,
2013-07-11 23:11:00,71.1,70.0,29.88,WNW,285,0.0,-999.0,95,-99.99,,,0.00,weatherlink.com 1.10,2013-07-12 03:11:00,
2013-07-11 23:26:00,70.9,69.0,29.89,WNW,296,2.0,-999.0,93,-99.99,,,0.00,weatherlink.com 1.10,2013-07-12 03:26:00,
2013-07-11 23:41:00,71.3,67.0,29.89,WNW,302,2.0,-999.0,87,-99.99,,,0.00,weatherlink.com 1.10,2013-07-12 03:41:00,
2013-07-11 23:56:00,71.5,67.0,29.90,NW,311,2.0,-999.0,86,-99.99,,,0.00,weatherlink.com 1.10,2013-07-12 03:56:00,